BAW478 EGLL-LEIB

Flight info

Callsign BAW478
Flight time 2h 6m
Altitude 37000
Route MAXIT Y803 MID L151 SITET UN859 SOPIL DCT BALAN DCT EVPOK DCT NARAK DCT GAI DCT LOMRA DCT ROCAN DCT PUMAL N859 BCN Z174 CORDA
Aircraft A20N/M-SDE2E3FGHIRWXY/LB1

Departure

Time 2026-05-04 15:17
Airport London Heathrow Airport (EGLL)

Arrival

Time 2026-05-04 17:23
Airport Ibiza Airport (LEIB)
Time Latitude Longitude Altitude Speed Heading
2026-05-04 14:37 51.47053 -0.48025 88 ft 0 kts 269°
2026-05-04 15:01 51.47053 -0.48021 84 ft 2 kts 269°
2026-05-04 15:01 51.47053 -0.47979 84 ft 4 kts 273°
2026-05-04 15:02 51.47051 -0.47937 87 ft 4 kts 279°
2026-05-04 15:02 51.47044 -0.47896 88 ft 4 kts 298°
2026-05-04 15:02 51.47029 -0.47870 87 ft 2 kts 359°
2026-05-04 15:02 51.47024 -0.47870 86 ft 0 kts 360°
2026-05-04 15:05 51.47044 -0.47870 86 ft 6 kts
2026-05-04 15:06 51.47092 -0.47870 84 ft 9 kts 359°
2026-05-04 15:06 51.47150 -0.47871 84 ft 8 kts 359°
2026-05-04 15:06 51.47209 -0.47871 84 ft 9 kts
2026-05-04 15:07 51.47345 -0.47880 84 ft 12 kts 358°
2026-05-04 15:07 51.47438 -0.47883 84 ft 14 kts
2026-05-04 15:07 51.47543 -0.47878 85 ft 15 kts 10°
2026-05-04 15:07 51.47582 -0.47744 90 ft 15 kts 89°
2026-05-04 15:08 51.47584 -0.47567 88 ft 17 kts 89°
2026-05-04 15:08 51.47584 -0.47369 85 ft 19 kts 90°
2026-05-04 15:08 51.47584 -0.47156 90 ft 19 kts 90°
2026-05-04 15:08 51.47583 -0.46940 91 ft 20 kts 89°
2026-05-04 15:09 51.47592 -0.46719 89 ft 20 kts 89°
2026-05-04 15:09 51.47594 -0.46478 92 ft 22 kts 89°
2026-05-04 15:09 51.47595 -0.46223 89 ft 24 kts 90°
2026-05-04 15:10 51.47598 -0.45646 84 ft 27 kts 89°
2026-05-04 15:10 51.47601 -0.45344 87 ft 27 kts 88°
2026-05-04 15:10 51.47601 -0.44863 90 ft 8 kts 88°
2026-05-04 15:11 51.47603 -0.44733 90 ft 20 kts 91°
2026-05-04 15:11 51.47602 -0.44477 87 ft 25 kts 90°
2026-05-04 15:11 51.47601 -0.44188 85 ft 27 kts 91°
2026-05-04 15:11 51.47592 -0.43978 84 ft 15 kts 90°
2026-05-04 15:12 51.47596 -0.43813 88 ft 15 kts 87°
2026-05-04 15:12 51.47593 -0.43639 85 ft 16 kts 86°
2026-05-04 15:12 51.47646 -0.43484 89 ft 16 kts 48°
2026-05-04 15:12 51.47737 -0.43429 90 ft 12 kts 356°
2026-05-04 15:13 51.47766 -0.43486 89 ft 8 kts 279°
2026-05-04 15:13 51.47766 -0.43518 90 ft 1 kts 269°
2026-05-04 15:13 51.47766 -0.43524 90 ft 0 kts 269°
2026-05-04 15:13 51.47766 -0.43528 90 ft 0 kts 269°
2026-05-04 15:14 51.47766 -0.43529 90 ft 1 kts 269°
2026-05-04 15:14 51.47766 -0.43565 88 ft 0 kts 269°
2026-05-04 15:16 51.47765 -0.43632 85 ft 24 kts 269°
2026-05-04 15:17 51.47764 -0.44308 84 ft 94 kts 270°
2026-05-04 15:17 51.47730 -0.47433 553 ft 160 kts 270°
2026-05-04 15:17 51.47701 -0.49240 1361 ft 163 kts 270°
2026-05-04 15:18 51.47677 -0.51079 2152 ft 172 kts 270°
2026-05-04 15:18 51.47647 -0.53076 2672 ft 187 kts 268°
2026-05-04 15:18 51.47414 -0.55237 3061 ft 207 kts 256°
2026-05-04 15:19 51.46600 -0.60236 4018 ft 253 kts 255°
2026-05-04 15:19 51.45780 -0.62813 4725 ft 266 kts 227°
2026-05-04 15:19 51.42553 -0.64964 5966 ft 272 kts 175°
2026-05-04 15:20 51.40770 -0.63987 6884 ft 273 kts 148°
2026-05-04 15:20 51.39211 -0.62225 7872 ft 276 kts 145°
2026-05-04 15:20 51.37602 -0.60540 8802 ft 279 kts 151°
2026-05-04 15:20 51.35867 -0.59114 9742 ft 281 kts 157°
2026-05-04 15:21 51.34040 -0.57902 10447 ft 292 kts 160°
2026-05-04 15:21 51.32058 -0.56754 10731 ft 316 kts 162°
2026-05-04 15:21 51.27728 -0.56001 11819 ft 337 kts 187°
2026-05-04 15:22 51.25398 -0.56654 12669 ft 341 kts 189°
2026-05-04 15:22 51.23072 -0.57200 13493 ft 345 kts 188°
2026-05-04 15:22 51.18284 -0.58415 15007 ft 351 kts 190°
2026-05-04 15:23 51.15875 -0.59134 15741 ft 353 kts 191°
2026-05-04 15:23 51.13461 -0.59893 16450 ft 356 kts 191°
2026-05-04 15:23 51.11020 -0.60677 17172 ft 359 kts 191°
2026-05-04 15:23 51.09371 -0.61210 17648 ft 361 kts 191°
2026-05-04 15:24 51.04035 -0.61365 19016 ft 367 kts 167°
2026-05-04 15:24 50.99256 -0.58459 20173 ft 375 kts 159°
2026-05-04 15:25 50.96845 -0.56848 20766 ft 378 kts 159°
2026-05-04 15:25 50.94413 -0.55235 21357 ft 381 kts 159°
2026-05-04 15:25 50.91955 -0.53613 21940 ft 384 kts 159°
2026-05-04 15:26 50.86979 -0.50339 23088 ft 390 kts 160°
2026-05-04 15:26 50.84468 -0.48690 23694 ft 391 kts 160°
2026-05-04 15:26 50.79416 -0.45378 24664 ft 395 kts 160°
2026-05-04 15:27 50.76863 -0.43708 25155 ft 397 kts 160°
2026-05-04 15:27 50.71777 -0.40386 26062 ft 401 kts 160°
2026-05-04 15:28 50.66587 -0.37004 26945 ft 406 kts 160°
2026-05-04 15:28 50.63980 -0.35308 27382 ft 407 kts 160°
2026-05-04 15:28 50.58708 -0.31885 28188 ft 411 kts 160°
2026-05-04 15:29 50.56157 -0.30231 28545 ft 414 kts 160°
2026-05-04 15:30 50.45421 -0.23294 29957 ft 422 kts 161°
2026-05-04 15:30 50.37216 -0.18018 30848 ft 428 kts 160°
2026-05-04 15:31 50.31705 -0.14486 31501 ft 430 kts 160°
2026-05-04 15:31 50.28927 -0.12708 31888 ft 429 kts 160°
2026-05-04 15:32 50.20658 -0.07432 33001 ft 427 kts 159°
2026-05-04 15:32 50.15322 -0.03785 33658 ft 427 kts 157°
2026-05-04 15:33 50.09881 -0.00106 34209 ft 426 kts 162°
2026-05-04 15:34 50.01293 0.03443 34837 ft 427 kts 167°
2026-05-04 15:34 49.98408 0.04571 35041 ft 428 kts 167°
2026-05-04 15:34 49.93611 0.06453 35410 ft 428 kts 167°
2026-05-04 15:35 49.87876 0.08701 35789 ft 430 kts 167°
2026-05-04 15:35 49.84971 0.09839 35974 ft 430 kts 167°
2026-05-04 15:35 49.82072 0.10972 36154 ft 431 kts 167°
2026-05-04 15:36 49.76246 0.13247 36506 ft 432 kts 167°
2026-05-04 15:36 49.73324 0.14385 36685 ft 433 kts 167°
2026-05-04 15:36 49.70402 0.15523 36870 ft 433 kts 167°
2026-05-04 15:37 49.67481 0.16659 36986 ft 434 kts 167°
2026-05-04 15:37 49.64560 0.17824 36991 ft 434 kts 167°
2026-05-04 15:37 49.58749 0.20182 36993 ft 433 kts 167°
2026-05-04 15:38 49.52944 0.22525 36994 ft 433 kts 167°
2026-05-04 15:38 49.47130 0.24859 36992 ft 432 kts 167°
2026-05-04 15:39 49.41303 0.27190 36966 ft 432 kts 167°
2026-05-04 15:40 49.32563 0.30676 36970 ft 433 kts 167°
2026-05-04 15:40 49.26993 0.32947 36976 ft 433 kts 166°
2026-05-04 15:41 49.21212 0.35415 36982 ft 433 kts 166°
2026-05-04 15:41 49.15498 0.37834 36976 ft 433 kts 166°
2026-05-04 15:42 49.09685 0.40275 36978 ft 434 kts 166°
2026-05-04 15:42 49.03861 0.42713 36979 ft 433 kts 166°
2026-05-04 15:43 48.98057 0.45137 36966 ft 431 kts 166°
2026-05-04 15:43 48.92286 0.47541 36969 ft 430 kts 166°
2026-05-04 15:44 48.86497 0.49945 36971 ft 431 kts 166°
2026-05-04 15:44 48.80719 0.52340 36966 ft 431 kts 167°
2026-05-04 15:45 48.74934 0.54683 36970 ft 431 kts 167°
2026-05-04 15:45 48.69132 0.56938 36966 ft 431 kts 167°
2026-05-04 15:46 48.63365 0.59183 36968 ft 430 kts 167°
2026-05-04 15:46 48.57570 0.61444 36967 ft 430 kts 167°
2026-05-04 15:47 48.51778 0.63700 36966 ft 430 kts 167°
2026-05-04 15:47 48.45992 0.66038 36965 ft 430 kts 167°
2026-05-04 15:48 48.40220 0.68404 36967 ft 430 kts 167°
2026-05-04 15:48 48.31558 0.71919 36962 ft 430 kts 167°
2026-05-04 15:49 48.25793 0.74247 36958 ft 430 kts 167°
2026-05-04 15:49 48.20010 0.76545 36952 ft 429 kts 167°
2026-05-04 15:50 48.14237 0.78807 36956 ft 429 kts 167°
2026-05-04 15:50 48.08461 0.81070 36952 ft 428 kts 167°
2026-05-04 15:51 48.02698 0.83327 36948 ft 428 kts 167°
2026-05-04 15:51 47.96944 0.85577 36941 ft 427 kts 168°
2026-05-04 15:52 47.91184 0.87822 36935 ft 427 kts 168°
2026-05-04 15:52 47.85491 0.90035 36932 ft 427 kts 168°
2026-05-04 15:53 47.79747 0.92263 36918 ft 426 kts 168°
2026-05-04 15:53 47.74013 0.94484 36932 ft 426 kts 168°
2026-05-04 15:54 47.68317 0.96684 36932 ft 425 kts 168°
2026-05-04 15:54 47.62625 0.98877 36931 ft 425 kts 168°
2026-05-04 15:55 47.56902 1.01078 36928 ft 425 kts 168°
2026-05-04 15:55 47.51188 1.03270 36928 ft 424 kts 168°
2026-05-04 15:56 47.45461 1.05380 36929 ft 423 kts 172°
2026-05-04 15:56 47.39645 1.06372 36926 ft 419 kts 181°
2026-05-04 15:57 47.33830 1.06256 36928 ft 418 kts 183°
2026-05-04 15:57 47.28005 1.06097 36924 ft 418 kts 183°
2026-05-04 15:58 47.22190 1.05958 36924 ft 418 kts 183°
2026-05-04 15:58 47.16414 1.05824 36929 ft 418 kts 183°
2026-05-04 15:59 47.10603 1.05689 36932 ft 418 kts 183°
2026-05-04 15:59 47.04793 1.05553 36932 ft 417 kts 183°
2026-05-04 16:00 46.98989 1.05382 36934 ft 417 kts 184°
2026-05-04 16:00 46.93194 1.05115 36935 ft 416 kts 184°
2026-05-04 16:01 46.87438 1.04856 36930 ft 416 kts 184°
2026-05-04 16:01 46.81651 1.04607 36928 ft 416 kts 184°
2026-05-04 16:02 46.75869 1.04361 36923 ft 415 kts 184°
2026-05-04 16:03 46.67211 1.03994 36917 ft 415 kts 184°
2026-05-04 16:03 46.61438 1.03750 36913 ft 415 kts 184°
2026-05-04 16:04 46.55667 1.03509 36909 ft 415 kts 183°
2026-05-04 16:04 46.47043 1.04803 36913 ft 419 kts 170°
2026-05-04 16:05 46.41364 1.06749 36912 ft 419 kts 170°
2026-05-04 16:06 46.32898 1.09591 36912 ft 418 kts 170°
2026-05-04 16:07 46.21561 1.13359 36913 ft 418 kts 170°
2026-05-04 16:08 46.10256 1.17102 36908 ft 415 kts 170°
2026-05-04 16:09 45.96198 1.21734 36902 ft 416 kts 171°
2026-05-04 16:10 45.84967 1.25418 36914 ft 415 kts 171°
2026-05-04 16:11 45.73671 1.29108 36912 ft 416 kts 171°
2026-05-04 16:12 45.56726 1.34613 36908 ft 416 kts 171°
2026-05-04 16:13 45.45436 1.38263 36911 ft 416 kts 171°
2026-05-04 16:14 45.34135 1.41901 36916 ft 416 kts 171°
2026-05-04 16:16 45.20049 1.46415 36914 ft 416 kts 171°
2026-05-04 16:17 45.05973 1.50904 36916 ft 416 kts 171°
2026-05-04 16:18 44.94663 1.54493 36907 ft 421 kts 171°
2026-05-04 16:19 44.80376 1.59007 36926 ft 421 kts 171°
2026-05-04 16:20 44.66093 1.63496 36913 ft 421 kts 171°
2026-05-04 16:22 44.52820 1.67648 36913 ft 421 kts 172°
2026-05-04 16:23 44.35647 1.72993 36924 ft 421 kts 172°
2026-05-04 16:25 44.18408 1.77355 36934 ft 420 kts 175°
2026-05-04 16:26 43.98341 1.81762 36920 ft 414 kts 175°
2026-05-04 16:28 43.84079 1.83530 36917 ft 412 kts 180°
2026-05-04 16:29 43.64148 1.85456 36910 ft 408 kts 181°
2026-05-04 16:31 43.49971 1.86820 36917 ft 409 kts 181°
2026-05-04 16:32 43.32959 1.88452 36912 ft 408 kts 181°
2026-05-04 16:33 43.21711 1.89526 36911 ft 408 kts 181°
2026-05-04 16:34 43.13189 1.90337 36916 ft 410 kts 181°
2026-05-04 16:35 42.96148 1.91955 36892 ft 409 kts 181°
2026-05-04 16:36 42.87625 1.92760 36912 ft 410 kts 181°
2026-05-04 16:37 42.79054 1.93568 36911 ft 410 kts 181°
2026-05-04 16:38 42.67634 1.94653 36908 ft 413 kts 180°
2026-05-04 16:39 42.53343 1.97493 36919 ft 416 kts 177°
2026-05-04 16:40 42.41882 1.99803 36907 ft 417 kts 177°
2026-05-04 16:41 42.27555 2.01724 36919 ft 413 kts 182°
2026-05-04 16:43 42.13215 2.03076 36923 ft 412 kts 182°
2026-05-04 16:43 42.04615 2.03885 36923 ft 414 kts 182°
2026-05-04 16:45 41.87431 2.05502 36930 ft 413 kts 182°
2026-05-04 16:46 41.73080 2.06845 36930 ft 413 kts 182°
2026-05-04 16:47 41.61650 2.07911 36938 ft 413 kts 182°
2026-05-04 16:48 41.50177 2.08978 36942 ft 414 kts 182°
2026-05-04 16:49 41.38688 2.10045 36935 ft 414 kts 182°
2026-05-04 16:50 41.27203 2.11356 36935 ft 417 kts 180°
2026-05-04 16:51 41.18573 2.12819 36940 ft 417 kts 180°
2026-05-04 16:52 41.07074 2.14745 36906 ft 416 kts 180°
2026-05-04 16:53 40.98445 2.16184 36891 ft 417 kts 180°
2026-05-04 16:54 40.86927 2.18101 36876 ft 417 kts 180°
2026-05-04 16:55 40.69576 2.20973 36896 ft 420 kts 180°
2026-05-04 16:56 40.55120 2.23356 36904 ft 420 kts 180°
2026-05-04 16:57 40.46410 2.24787 36904 ft 420 kts 180°
2026-05-04 16:58 40.34828 2.27319 36746 ft 424 kts 176°
2026-05-04 16:59 40.29053 2.28820 35484 ft 428 kts 176°
2026-05-04 17:00 40.17318 2.31855 32361 ft 429 kts 176°
2026-05-04 17:00 40.08527 2.34119 30195 ft 424 kts 175°
2026-05-04 17:01 40.02815 2.35592 28994 ft 413 kts 176°
2026-05-04 17:01 39.97252 2.37022 27864 ft 401 kts 176°
2026-05-04 17:02 39.91862 2.38401 26764 ft 392 kts 176°
2026-05-04 17:02 39.86536 2.39761 25683 ft 385 kts 176°
2026-05-04 17:03 39.84006 2.40406 25156 ft 382 kts 176°
2026-05-04 17:03 39.81368 2.41078 24606 ft 379 kts 176°
2026-05-04 17:03 39.76242 2.42232 23512 ft 370 kts 182°
2026-05-04 17:04 39.71240 2.42113 22425 ft 352 kts 194°
2026-05-04 17:04 39.66398 2.41340 21379 ft 344 kts 193°
2026-05-04 17:05 39.61674 2.40614 20358 ft 339 kts 193°
2026-05-04 17:05 39.57058 2.39653 19347 ft 329 kts 205°
2026-05-04 17:06 39.53431 2.36459 18424 ft 328 kts 232°
2026-05-04 17:06 39.52101 2.33974 18189 ft 340 kts 238°
2026-05-04 17:07 39.49507 2.28823 17162 ft 346 kts 238°
2026-05-04 17:07 39.49060 2.27940 16828 ft 349 kts 237°
2026-05-04 17:07 39.46839 2.23567 15839 ft 344 kts 237°
2026-05-04 17:07 39.45536 2.21009 15362 ft 338 kts 237°
2026-05-04 17:08 39.44252 2.18485 14877 ft 333 kts 237°
2026-05-04 17:08 39.41736 2.13546 13906 ft 325 kts 237°
2026-05-04 17:08 39.40899 2.11902 13574 ft 323 kts 237°
2026-05-04 17:09 39.39668 2.09487 13091 ft 322 kts 237°
2026-05-04 17:09 39.38439 2.07079 12622 ft 320 kts 237°
2026-05-04 17:09 39.37222 2.04697 12241 ft 314 kts 237°
2026-05-04 17:10 39.34918 2.00193 11999 ft 287 kts 237°
2026-05-04 17:10 39.31266 1.94531 10727 ft 285 kts 208°
2026-05-04 17:11 39.29451 1.93581 10199 ft 292 kts 204°
2026-05-04 17:11 39.27562 1.92715 10119 ft 283 kts 203°
2026-05-04 17:11 39.23979 1.91070 9716 ft 266 kts 204°
2026-05-04 17:12 39.22262 1.90250 9612 ft 266 kts 204°
2026-05-04 17:12 39.18848 1.88597 9416 ft 257 kts 204°
2026-05-04 17:13 39.14077 1.86286 8614 ft 231 kts 205°
2026-05-04 17:14 39.09562 1.84092 7087 ft 230 kts 205°
2026-05-04 17:14 39.08066 1.83367 6678 ft 230 kts 205°
2026-05-04 17:14 39.05424 1.81290 5887 ft 221 kts 237°
2026-05-04 17:15 39.04711 1.79567 5729 ft 219 kts 245°
2026-05-04 17:15 39.03343 1.76092 5502 ft 210 kts 244°
2026-05-04 17:16 39.02076 1.72974 5321 ft 185 kts 242°
2026-05-04 17:16 39.00346 1.68934 4770 ft 166 kts 241°
2026-05-04 17:17 38.99772 1.67603 4692 ft 169 kts 243°
2026-05-04 17:17 38.98131 1.63617 4183 ft 168 kts 243°
2026-05-04 17:18 38.97586 1.62291 3975 ft 166 kts 243°
2026-05-04 17:18 38.96513 1.59687 3563 ft 164 kts 242°
2026-05-04 17:19 38.95466 1.57142 3166 ft 160 kts 242°
2026-05-04 17:19 38.94420 1.54604 2751 ft 161 kts 241°
2026-05-04 17:20 38.93368 1.52053 2331 ft 162 kts 241°
2026-05-04 17:20 38.92341 1.49559 1891 ft 150 kts 240°
2026-05-04 17:20 38.91881 1.48440 1722 ft 132 kts 240°
2026-05-04 17:21 38.90995 1.46298 1356 ft 135 kts 239°
2026-05-04 17:21 38.90157 1.44260 1003 ft 121 kts 238°
2026-05-04 17:22 38.89757 1.43297 837 ft 127 kts 238°
2026-05-04 17:22 38.89350 1.42307 674 ft 124 kts 240°
2026-05-04 17:23 38.88100 1.39349 236 ft 143 kts 240°
2026-05-04 17:23 38.87677 1.38263 32 ft 128 kts 238°
2026-05-04 17:23 38.87258 1.37104 30 ft 32 kts 266°
2026-05-04 17:24 38.87261 1.36965 28 ft 0 kts 274°
2026-05-04 17:24 38.87304 1.36853 28 ft 10 kts 343°
2026-05-04 17:25 38.87380 1.36813 28 ft 13 kts 325°
2026-05-04 17:25 38.87469 1.36789 28 ft 4 kts
2026-05-04 17:26 38.87514 1.36803 28 ft 0 kts 17°